"Pseudo-MPEC" for P10OArR

Created 2019 Jun 15 19:07:56 UT using Find_Orb

Click here for an explanation of pseudo-MPECs

 
 Astrometry: 
     P10OArR  C2019 04 03*+)l_?nq5QgedEl2V:@1Xt]Tq^Ne`kpC70=+'R\Hq$=FjM`0_?+vF51
     P10OArR  C2019 04 03MVVf*AOl$fVAK7AstrometryMb_xbc;cTCI(B#XJY460pGVth2omF51
     P10OArR  C2019 04 03IvU.urKj[Y3^x;'!M+5bu-LkT(@Bni6=fE%aqPQRdekZLq.W,JR9F51
     P10OArR  C2019 04 03PwHXqjLaZCMHhwR?*^OXs!*[X6_d*5;,m3PsN1!kdiBpb3!UENVOF51
     P10OArR  C2019 04 15ch@H,$]H0*5`WcKsp7a9-#stXO@,_Io(iq4GT6W8%roBwB`nY!-gF51
     P10OArR  C2019 05 01%;]/[DI_9QN1?P?V-25Y'XWJK]t2$yl@6V!Z%`NVi9OsX_Du:LSKF51
     P10OArR  C2019 05 01PKP3Eblx.25dgoC(wSq6)DIh$m=spiIv?7u[)tjo/.\X,dV_5lhYF51
     P10OArR  C2019 05 01o1^cN\yF`u?QpU4Dy)--ef9PvS?Buy8,7U[m749Q/3(Yhp$gy1N?F51
     P10OArR  C2019 05 25QBI'uhJJAWXqlLb?:iRvtG;Fljewf4%;W)exEvWph)XHLkU#n)JNF51
     P10OArR  C2019 05 25EJtijrU$QJ[Z54Yfk)TN;WPBH_EpiIE4M?#=72vB\1VKE57jrF4WF51
     P10OArR  C2019 05 25IVY.UPw$ue+:BI,TE(jV_VN-FG-e[d47DvltNJo9Uc6$Ij#,54k+F51
     P10OArR  C2019 06 02j?86@FU!dCl.@^(nbQarowvrBT$1hIXiTH/T$e?GW'Ap0i2;+*d\F51
     P10OArR  C2019 06 02[]$5;iWe+i.:redacted;7qHo\g=nI83(PN3[mo*N+E=bdclickIF51
     P10OArR  C2019 06 02QL=BDe8Z-/NVGliOwqXd2Nn:YnWu2Z_wH)c:=pIlLK8oT5fqGQ]uF51
     P10OArR |C2019 06 03yw.m.]Zic?@f]?-*e3UX(cGoZIFqDyH-GWj'TttXue^;y9M'WtP7807
     P10OArR |C2019 06 03CPcBP1OwhsXB'X=!4O/:`$mTQO1%I0eEhere`QN7?HI)'Y+;ba$!807
     P10OArR |C2019 06 06]J/4ytnXwrh=(mFsgHB)QI\$CwZy4*.])qpZi8v`AD,:1T]n,`0B807
     P10OArR |C2019 06 06Yh@0H?D-MFD0=:j`SAGNeShPb%DH@.jSPdcR)a_1-*u%xfe+a2YL807
     P10OArR  C2019 06 08@V([P!bt.8_qjBX*-@h)E@IdL0w+\q-lyil)Dfor.#S$D9]NFWpOF51
     P10OArR  C2019 06 08V7R@cbqnxhVjAE6$iD(vxx!C7^K^oBgexplanationK3@Ev\=D[_F51
     P10OArR  C2019 06 08K[yb_C`A?_@@\1X-IM)7R1x8mo7(.kTikpO40JSojt+VR9%ZBp29F51
     P10OArR  C2019 06 08[d+)YB1h4?1%5:meFI/tUeMnE-j;?)Q*5Z=1k_E1q$eqPrJ`l%%?F51

Station data:
(807) Cerro Tololo Observatory, La Serena  (S30.169136 W70.805900)  Chile.
(F51) Pan-STARRS 1, Haleakala  (N20.707235 W156.255910)  US/Hawaii.
   Observers N. Primak, A. Schultz, S. Watters, J. Thiel, T. Goggia. Measurer
   PS1 Science Consortium. 1.8-m Ritchey-Chrétien + CCD.

Orbital elements:  P10OArR
   Perihelion 2020 Jul 3.194752 +/- 0.0392 TT =  4:40:26 (JD 2459033.694752)
Epoch 2019 Jun  8.0 TT = JDT 2458642.5   Earth MOID: 0.7282   AutoNEOCP
M 211.47727330 +/- 0.016            (J2000 ecliptic)
n   0.37966441 +/- 1.26e-5          Peri.  349.94415 +/- 0.014
a   1.88887312 +/- 4.19e-5          Node    49.37302 +/- 0.00049
e   0.0908181 +/- 1.3e-5            Incl.   23.98455 +/- 0.0014
P   2.60/948.19d           H 20.1   G  0.15   U  5.2  
q 1.71732921 +/- 3.32e-5    Q 2.06041702 +/- 6.19e-5
From 22 observations 2019 Apr. 3-June 8; mean residual 0".21
Residuals in arcseconds: 
190403 F51  .08+  .01-    190525 F51  .64-  .06+    190606 807  .15+  .10-    
190403 F51  .07-  .33-    190525 F51  .38-  .24+    190606 807  .14+  .01+    
190403 F51  .15+  .15-    190525 F51  .22-  .08-    190608 F51  .05-  .17+    
190403 F51  .27-  .14-    190602 F51  .10+  .13+    190608 F51  .11+  .02-    
190415 F51  .10+  .21+    190602 F51  .15-  .31+    190608 F51  .06-  .01-    
190501 F51  .02-  .04-    190602 F51  .10-  .17+    190608 F51  .07+  .27-    
190501 F51  .14+  .38+    190603 807  .28+  .39-    
190501 F51  .23+  .02+    190603 807  .24+  .31-    

Ephemerides (geocentric):
Date (UTC) HH   RA              Dec         delta   r     elong  mag " sig PA
---- -- -- --  -------------   -----------  ------ ------ -----  --- ---- ---
2019 06 15 19  14 56 14.363   -31 16 56.03  1.1225 2.0348 144.2 22.8 .177  41
2019 06 15 20  14 56 11.410   -31 17 08.41  1.1228 2.0348 144.1 22.8 .178  41
2019 06 15 21  14 56 08.462   -31 17 20.77  1.1231 2.0348 144.1 22.8 .179  41
2019 06 15 22  14 56 05.518   -31 17 33.12  1.1233 2.0348 144.0 22.8 .180  42
2019 06 15 23  14 56 02.580   -31 17 45.45  1.1236 2.0347 144.0 22.8 .180  42
2019 06 16 00  14 55 59.646   -31 17 57.78  1.1238 2.0347 143.9 22.8 .181  42
2019 06 16 01  14 55 56.717   -31 18 10.09  1.1241 2.0347 143.9 22.8 .182  42
2019 06 16 02  14 55 53.792   -31 18 22.39  1.1243 2.0347 143.8 22.8 .183  42
2019 06 16 03  14 55 50.873   -31 18 34.68  1.1246 2.0346 143.8 22.8 .184  42
2019 06 16 04  14 55 47.958   -31 18 46.96  1.1248 2.0346 143.7 22.8 .185  42
2019 06 16 05  14 55 45.048   -31 18 59.22  1.1251 2.0346 143.7 22.8 .185  42
2019 06 16 06  14 55 42.143   -31 19 11.47  1.1254 2.0346 143.6 22.8 .186  42
2019 06 16 07  14 55 39.242   -31 19 23.72  1.1256 2.0345 143.6 22.8 .187  42
2019 06 16 08  14 55 36.347   -31 19 35.95  1.1259 2.0345 143.5 22.8 .188  42
2019 06 16 09  14 55 33.456   -31 19 48.17  1.1261 2.0345 143.5 22.8 .189  43
2019 06 16 10  14 55 30.570   -31 20 00.37  1.1264 2.0345 143.5 22.8 .190  43
2019 06 16 11  14 55 27.689   -31 20 12.57  1.1266 2.0345 143.4 22.8 .190  43
2019 06 16 12  14 55 24.812   -31 20 24.75  1.1269 2.0344 143.4 22.8 .191  43
2019 06 16 13  14 55 21.941   -31 20 36.92  1.1272 2.0344 143.3 22.8 .192  43
2019 06 16 14  14 55 19.074   -31 20 49.08  1.1274 2.0344 143.3 22.8 .193  43
2019 06 16 15  14 55 16.212   -31 21 01.23  1.1277 2.0344 143.2 22.8 .194  43
2019 06 16 16  14 55 13.355   -31 21 13.37  1.1279 2.0343 143.2 22.8 .195  43
2019 06 16 17  14 55 10.502   -31 21 25.50  1.1282 2.0343 143.1 22.8 .195  43
2019 06 16 18  14 55 07.655   -31 21 37.61  1.1285 2.0343 143.1 22.8 .196  43
2019 06 16 19  14 55 04.812   -31 21 49.72  1.1287 2.0343 143.0 22.8 .197  43
2019 06 16 20  14 55 01.974   -31 22 01.81  1.1290 2.0342 143.0 22.8 .198  43
2019 06 16 21  14 54 59.141   -31 22 13.89  1.1292 2.0342 142.9 22.8 .199  44
2019 06 16 22  14 54 56.313   -31 22 25.96  1.1295 2.0342 142.9 22.8 .200  44
2019 06 16 23  14 54 53.490   -31 22 38.02  1.1298 2.0342 142.8 22.8 .201  44
2019 06 17 00  14 54 50.671   -31 22 50.07  1.1300 2.0342 142.8 22.8 .201  44
2019 06 17 01  14 54 47.857   -31 23 02.11  1.1303 2.0341 142.8 22.8 .202  44
2019 06 17 02  14 54 45.049   -31 23 14.13  1.1306 2.0341 142.7 22.8 .203  44
2019 06 17 03  14 54 42.245   -31 23 26.15  1.1308 2.0341 142.7 22.8 .204  44
2019 06 17 04  14 54 39.445   -31 23 38.15  1.1311 2.0341 142.6 22.8 .205  44
2019 06 17 05  14 54 36.651   -31 23 50.14  1.1313 2.0340 142.6 22.8 .206  44
2019 06 17 06  14 54 33.862   -31 24 02.12  1.1316 2.0340 142.5 22.8 .207  44
2019 06 17 07  14 54 31.077   -31 24 14.09  1.1319 2.0340 142.5 22.8 .208  44
2019 06 17 08  14 54 28.297   -31 24 26.05  1.1321 2.0340 142.4 22.8 .208  44
2019 06 17 09  14 54 25.522   -31 24 38.00  1.1324 2.0339 142.4 22.8 .209  45
2019 06 17 10  14 54 22.752   -31 24 49.94  1.1327 2.0339 142.3 22.8 .210  45
2019 06 17 11  14 54 19.987   -31 25 01.87  1.1329 2.0339 142.3 22.8 .211  45
2019 06 17 12  14 54 17.227   -31 25 13.79  1.1332 2.0339 142.2 22.8 .212  45
2019 06 17 13  14 54 14.471   -31 25 25.69  1.1335 2.0338 142.2 22.8 .213  45
2019 06 17 14  14 54 11.721   -31 25 37.59  1.1337 2.0338 142.2 22.8 .214  45
2019 06 17 15  14 54 08.975   -31 25 49.47  1.1340 2.0338 142.1 22.8 .215  45
2019 06 17 16  14 54 06.234   -31 26 01.35  1.1343 2.0338 142.1 22.8 .215  45
2019 06 17 17  14 54 03.498   -31 26 13.21  1.1345 2.0338 142.0 22.8 .216  45
2019 06 17 18  14 54 00.767   -31 26 25.06  1.1348 2.0337 142.0 22.8 .217  45